Карточка аэропорта URKA

Внимание!
Информация на этой странице в стадии наполнения.
Если вы не увидели какой-то информации, или заметили неточность - пожалуйста сообщите нам!
Спасибо!
Команда RU-STAFF
Название аэропортаВитязево
Название аэропорта (англ.)Vityazevo
Превышение176 ft. (53.6 m.)
Координаты45°0.13200000000012', 37°20.832'
Высота перехода4000 ft
Эшелон переходаFL50 (QNH >= 1013); FL60 (QNH 977-1012); FL70 (QNH < 977)
Коды ответчика1040-1047
Зона ОрВДРостов-на-Дону РПИ (URRV)
Данные METARURKA 232200Z 09004MPS CAVOK 16/08 Q1011 R03/010070 TEMPO 06009G15MPS RMK QFE754/1006
Проноз погоды (TAF)URKA 231948Z 2321/2421 07007G12MPS CAVOK TEMPO 2321/2409 05010G17MPS BECMG 2409/2411 09010G15MPS TEMPO 2411/2421 06013G21MPS
NOTAMshow/hide NOTAM
AWOS   TABLE

Информация о ВПП

ВПП Длина ВПП (м.) Покрытие Курс ВПП Частота ILS
042500Цементобетон36109.1
222500Цементобетон216 

Диспетчерские позиции

Позывной Наименование органа УВД Частота
URKA_R_APPАнапа-Круг118.7
URKAFM1119,0
URKA_GNDАнапа-Руление119.0
URKA_TWRАнапа-Старт119.8



Спутниковое изображение